Opa-locka, FL

3:03 PM EST on February 19, 2017 (GMT -0500)
Opa Locka

Weather History for KOPF - March, 2014

Change the Weather History Date:

Tuesday, March 25, 2014

  Actual Average Record
Temperature  
Mean Temperature 75 °F -  
Max Temperature 84 °F 80 °F 90 °F (2005)
Min Temperature 64 °F 65 °F 45 °F (1956)
Cooling Degree Days 10    
Growing Degree Days 25 (Base 50)    
Moisture  
Dew Point 63 °F    
Average Humidity 76    
Maximum Humidity 93    
Minimum Humidity 47    
Precipitation  
Precipitation 0.36 in - - ()
Sea Level Pressure  
Sea Level Pressure 29.93 in    
Wind  
Wind Speed 9 mph (WSW)    
Max Wind Speed 22 mph    
Max Gust Speed 28 mph    
Visibility 10 miles    
Events Rain , Thunderstorm    
Averages and records for this station are not official NWS values.
T = Trace of Precipitation, MM = Missing Value Source: NWS Daily Summary

Daily Weather History Graph

Daily Weather History Graph

Search for Another Location

Airport or City:

Trip Planner

Search our weather history database for the weather conditions in past years. The results will help you decide how hot, cold, wet, or windy it might be!

Date:

Astronomy

Mar. 25, 2014 Rise Set
Actual Time 7:19 AM EDT 7:34 PM EDT
Civil Twilight 6:56 AM EDT 7:57 PM EDT
Nautical Twilight 6:29 AM EDT 8:24 PM EDT
Astronomical Twilight 6:02 AM EDT 8:51 PM EDT
Moon 3:11 AM EDT (3/25) 2:31 PM EDT (3/25)
Length of Visible Light 13h 01m
Length of Day
12h 14m
Waning Crescent, 32% of the Moon is Illuminated
Mar 25
Waning Crescent
Mar 30
New
Apr 7
First Quarter
Apr 15
Full
Apr 22
Last Quarter

Hourly Weather History & Observations

Time (EDT) Temp. Heat Index Dew Point Humidity Pressure Visibility Wind Dir Wind Speed Gust Speed Precip Events Conditions
12:53 AM 69.1 °F - 63.0 °F 81% 30.01 in 10.0 mi NNW 13.8 mph - 0.04 in Rain Light Rain
1:53 AM 66.9 °F - 63.0 °F 87% 29.99 in 10.0 mi NNW 5.8 mph - 0.02 in Rain Light Rain
2:06 AM 66.9 °F - 63.0 °F 87% 29.99 in 10.0 mi WSW 3.5 mph - 0.00 in Rain , Thunderstorm Light Rain
2:25 AM 66.9 °F - 63.0 °F 87% 29.96 in 10.0 mi SE 3.5 mph - 0.00 in   Mostly Cloudy
2:53 AM 66.9 °F - 63.0 °F 87% 29.93 in 10.0 mi Calm Calm - 0.00 in   Partly Cloudy
3:53 AM 66.9 °F - 63.0 °F 87% 29.91 in 10.0 mi Calm Calm - 0.01 in Rain Light Rain
4:53 AM 66.9 °F - 64.0 °F 90% 29.91 in 10.0 mi South 8.1 mph - 0.00 in   Scattered Clouds
5:41 AM 66.9 °F - 64.0 °F 90% 29.91 in 10.0 mi Calm Calm - 0.02 in Rain , Thunderstorm Light Rain
5:53 AM 66.9 °F - 63.0 °F 87% 29.91 in 10.0 mi Calm Calm - 0.02 in Rain Light Rain
6:16 AM 66.9 °F - 63.0 °F 87% 29.92 in 10.0 mi Calm Calm - 0.01 in Thunderstorm Thunderstorm
6:31 AM 68.0 °F - 63.0 °F 84% 29.93 in 10.0 mi South 5.8 mph - 0.01 in Rain Light Rain
6:53 AM 66.9 °F - 63.0 °F 87% 29.96 in 9.0 mi West 8.1 mph - 0.06 in Rain , Thunderstorm Thunderstorms and Rain
7:09 AM 66.9 °F - 63.0 °F 87% 29.96 in 7.0 mi Calm Calm - 0.05 in Rain Rain
7:53 AM 66.0 °F - 64.0 °F 93% 29.95 in 6.0 mi SE 5.8 mph - 0.19 in Rain Light Rain
8:01 AM 66.0 °F - 63.0 °F 90% 29.94 in 3.0 mi SSE 6.9 mph - 0.00 in Rain Light Rain
8:53 AM 66.9 °F - 64.0 °F 90% 29.92 in 10.0 mi South 11.5 mph - 0.01 in Rain Light Rain
9:53 AM 70.0 °F - 64.9 °F 84% 29.94 in 10.0 mi SW 6.9 mph - 0.00 in Rain Light Rain
10:53 AM 71.1 °F - 66.0 °F 84% 29.95 in 10.0 mi SW 8.1 mph - 0.01 in   Mostly Cloudy
11:53 AM 75.0 °F - 66.9 °F 76% 29.93 in 10.0 mi SW 11.5 mph - N/A   Mostly Cloudy
12:53 PM 77.0 °F - 66.0 °F 69% 29.91 in 10.0 mi West 18.4 mph - N/A   Mostly Cloudy
1:49 PM 80.6 °F 82.7 °F 66.2 °F 61% 29.88 in 10.0 mi West 16.1 mph 23.0 mph N/A   Scattered Clouds
1:53 PM 81.0 °F 83.0 °F 66.0 °F 60% 29.89 in 10.0 mi West 17.3 mph - N/A   Scattered Clouds
2:53 PM 82.9 °F 84.6 °F 64.9 °F 54% 29.86 in 10.0 mi West 17.3 mph - N/A   Partly Cloudy
3:53 PM 82.9 °F 83.7 °F 62.1 °F 49% 29.84 in 10.0 mi West 21.9 mph - N/A   Partly Cloudy
4:53 PM 84.0 °F 84.5 °F 62.1 °F 47% 29.85 in 10.0 mi WNW 20.7 mph - N/A   Partly Cloudy
5:53 PM 82.0 °F 82.7 °F 61.0 °F 49% 29.87 in 10.0 mi WNW 19.6 mph - N/A   Clear
6:53 PM 79.0 °F - 62.1 °F 56% 29.89 in 10.0 mi West 16.1 mph 26.5 mph N/A   Clear
7:53 PM 75.9 °F - 63.0 °F 64% 29.92 in 10.0 mi WNW 12.7 mph - N/A   Clear
8:53 PM 73.9 °F - 63.0 °F 68% 29.95 in 10.0 mi WNW 16.1 mph - N/A   Partly Cloudy
9:53 PM 71.1 °F - 60.1 °F 68% 29.99 in 10.0 mi WNW 15.0 mph - N/A   Clear
10:53 PM 68.0 °F - 57.9 °F 70% 30.01 in 10.0 mi WNW 20.7 mph 27.6 mph N/A   Clear
11:53 PM 64.9 °F - 53.1 °F 65% 30.03 in 10.0 mi WNW 16.1 mph 25.3 mph N/A   Clear